Regional Weather Roundup
Issued by NWS San Angelo, TX

Home | Current Version | Previous Version | Text Only | Print | Product List | Glossary On
Versions: 1 2 3 4 5 6 7 8 9 10 11 12 13 14 15 16 17 18 19 20 21 22 23 24 25 26 27 28 29 30 31 32 33 34 35 36 37 38 39 40 41 42 43 44 45 46 47 48 49 50
000
ASUS44 KSJT 280710
RWRSJT
WEST CENTRAL TEXAS REGIONAL WEATHER ROUNDUP
NATIONAL WEATHER SERVICE SAN ANGELO TX
200 AM CDT FRI APR 28 2017

NOTE: "FAIR" INDICATES FEW OR NO CLOUDS BELOW 12,000 FEET WITH NO
SIGNIFICANT WEATHER AND/OR OBSTRUCTIONS TO VISIBILITY.

TXZ049-054-064>066-071>073-076>078-098-099-113-114-127-128-139-140-
154-155-168>170-280800
...LOCATIONS ACROSS WEST CENTRAL TEXAS...

CITY           SKY/WX    TMP DP  RH WIND       PRES   REMARKS
SAN ANGELO     CLEAR     76  58  53 S20G26    29.51R
ABILENE        CLOUDY    71  54  54 S16       29.50S
DYESS AFB      MOCLDY    73  56  54 S22       29.48S
JUNCTION       CLOUDY    73  64  73 S7        29.59S
SWEETWATER     CLOUDY    73  56  54 S21G26    29.53F
BROWNWOOD      CLOUDY    66  55  68 SE5       29.54S
COLEMAN        CLOUDY    69  57  65 SW6       29.55S
SONORA         CLOUDY    75  61  60 S12G18    29.63R
OZONA            N/A     73  59  60 S14G22    29.60S
BRADY          NOT AVBL
$$

TEXAS PANHANDLE/OKLAHOMA PANHANDLE

CITY           SKY/WX    TMP DP  RH WIND       PRES   REMARKS
AMARILLO       CLOUDY    56  47  71 E6        29.61R
BORGER         CLOUDY    57  41  55 NW9       29.60R
CANADIAN       CLOUDY    59  52  75 S14G22    29.54F
DALHART        CLOUDY    50  42  74 E7        29.66R
DUMAS          CLOUDY    50  41  71 N8        29.64R
GUYMON         NOT AVBL
HEREFORD       CLOUDY    57  44  62 NW8       29.62S
PAMPA          CLOUDY    60  47  62 SE8       29.58F
PERRYTON       CLOUDY    55  46  71 NW10      29.55R
$$

SOUTHERN PANHANDLE/SOUTH PLAINS/ROLLING PLAINS

CITY           SKY/WX    TMP DP  RH WIND       PRES   REMARKS
LUBBOCK        CLOUDY    60  46  59 N13       29.56R
SNYDER         CLOUDY   N/A N/A N/A S15G23    29.51S
CHILDRESS      PTCLDY    61  49  64 NE12      29.50R
SEMINOLE       CLOUDY    70  36  28 SW8       29.57R
$$

PERMIAN BASIN

CITY           SKY/WX    TMP DP  RH WIND       PRES   REMARKS
MIDLAND        MOCLDY    73  52  47 S13       29.56S
ODESSA         CLOUDY    73  52  47 S17       29.57S
WINK           CLOUDY    80  34  19 SW13      29.55R
$$

FAR WEST/SOUTHWEST MOUNTAINS/TRANS PECOS

CITY           SKY/WX    TMP DP  RH WIND       PRES   REMARKS
ALPINE         SUNNY     74  31  20 SW10      29.76S
DRYDEN           N/A     71  53  52 N7        29.56R
EL PASO        CLOUDY    75  32  20 SW7       29.70R
FORT STOCKTON  PTCLDY    70  42  36 S7        29.60R
GUADALUPE PASS CLOUDY    68  27  21 SW36G44   29.72R
MARFA          CLOUDY    58  31  35 CALM      29.75F
PECOS          MOSUNNY   74  36  24 SW8       29.56R
$$

DALLAS/FORT WORTH METROPLEX

CITY           SKY/WX    TMP DP  RH WIND       PRES   REMARKS
DFW AIRPORT    CLOUDY    66  56  70 SE13      29.54F
FTW MEACHAM    CLEAR     69  59  70 S14       29.54F
DAL-EXECUTIVE  CLEAR     66  56  70 SE13G22   29.56F
GRAND PRAIRIE  CLEAR     67  55  65 SE13G20   29.57F
ADDISON        CLOUDY    66  55  66 SE15G22   29.58F
MESQUITE       SUNNY     62  55  77 SE8       29.59S
LANCASTER      SUNNY     64  55  72 SE13G18   29.59F
$$

NORTH CENTRAL TEXAS

CITY           SKY/WX    TMP DP  RH WIND       PRES   REMARKS
SHRMAN/DENISON CLOUDY    63  53  70 SE14      29.58S
GAINESVILLE    CLOUDY    61  53  74 S12       29.56F
BRIDGEPORT     CLOUDY    68  55  63 SE10G17   29.53S
DENTON         CLOUDY    66  55  67 SE16      29.54F
WAXAHACHIE     SUNNY     64  56  77 SE13G18   29.59F
GRANBURY       SUNNY     67  57  69 SE10      29.55F
$$

WESTERN NORTH TEXAS

CITY           SKY/WX    TMP DP  RH WIND       PRES   REMARKS
WICHITA FALLS  PTCLDY    61  51  70 E9        29.48S
VERNON         CLOUDY    63  46  54 E9        29.48R
BRECKENRIDGE   CLOUDY    71  51  48 S14G22    29.49S
COMANCHE       CLOUDY    63  56  76 E5        29.55S
$$

CENTRAL AND SOUTH CENTRAL TEXAS

CITY           SKY/WX    TMP DP  RH WIND       PRES   REMARKS
AUSTIN/BERGSTM CLOUDY    72  65  78 S13G23    29.61F
WACO           CLOUDY    67  61  81 S16       29.59S
HILLSBORO      MOSUNNY   66  59  79 SE14G21   29.59S
TEMPLE         CLOUDY    68  63  84 S24       29.59S
KILLEEN-GRAY   CLOUDY    67  63  88 S18       29.58S
FORT HOOD      CLOUDY    66  63  89 S13       29.56S
GEORGETOWN     CLOUDY    70  61  73 S14G23    29.62S
LAGO VISTA     CLOUDY    68  63  84 S10G22    29.63F
SAN MARCOS     CLOUDY    70  64  83 S12       29.63F
NEW BRAUNFELS  CLOUDY    71  65  81 S9        29.62F
RANDOLPH AFB   CLOUDY    71  67  90 S10       29.63S
SAN ANTONIO    CLOUDY    70  64  81 S12       29.63F
STINSON        CLOUDY    72  65  78 SE8       29.61F
PLEASANTON     NOT AVBL
LA GRANGE      CLOUDY    72  69  90 S6        29.61F
GIDDINGS       CLOUDY    70  65  83 S8G16     29.63F
$$

EAST TEXAS

CITY           SKY/WX    TMP DP  RH WIND       PRES   REMARKS
PARIS          CLOUDY    61  52  72 SE14      29.64F
CLARKSVILLE    NOT AVBL
TYLER          MOCLDY    65  56  72 S13       29.64F
LONGVIEW       CLEAR     61  58  90 SE9       29.66F
PALESTINE      CLOUDY    67  56  67 SE8       29.66S
NACOGDOCHES    CLOUDY    66  57  72 S7        29.67R
$$

TEXAS HILL COUNTRY AND EDWARDS PLATEAU

CITY           SKY/WX    TMP DP  RH WIND       PRES   REMARKS
LLANO          MOSUNNY   70  63  78 SE7       29.62F
HORSESHOE BAY  PTSUNNY   68  63  85 S10       29.61S
KERRVILLE      CLOUDY    66  64  91 S16G24    29.64S
FREDERICKSBRG  MOCLDY    67  62  84 S14       29.63S
ROCKSPRINGS    CLOUDY    70  64  83 S15G24    29.63F
HONDO          LGT RAIN  70  66  87 SE13      29.62F
UVALDE         CLOUDY    69  65  88 SE10      29.61F
DEL RIO        CLEAR     74  65  73 E10       29.53F
$$

SOUTHEAST TEXAS

CITY           SKY/WX    TMP DP  RH WIND       PRES   REMARKS
COLLEGE STN    CLOUDY    71  65  81 S14       29.63F
CALDWELL       NOT AVBL
CROCKETT       CLOUDY    66  57  72 SE5       29.69R
BRENHAM        CLOUDY    72  67  84 SE6       29.64F
HUNTSVILLE     CLOUDY    70  63  78 VRB7      29.63F
CONROE         CLOUDY    68  64  87 E5        29.66F
HOUSTON BUSH   CLOUDY    75  68  78 S8        29.65F
HOUSTON HOBBY  CLOUDY    74  70  87 SE7       29.64F
PERLAND        CLOUDY    77  71  82 SE6       29.67F
WHARTON        CLOUDY    74  68  83 SE6       29.65F
$$

THE UPPER TEXAS COAST

CITY           SKY/WX    TMP DP  RH WIND       PRES   REMARKS
ORANGE         CLOUDY    75  73  91 S7        29.70F
PORT ARTHUR    CLOUDY    76  71  85 SE12      29.67F
GALVESTON      CLOUDY    77  74  90 SE10      29.66F
ANGLETON       CLOUDY    77  73  87 SE8       29.65F
BAY CITY       CLOUDY    76  73  89 SE5       29.64F
$$

TEXAS COASTAL BEND, RIO GRANDE PLAINS DEEP SOUTH TEXAS

CITY           SKY/WX    TMP DP  RH WIND       PRES   REMARKS
VICTORIA       CLOUDY    75  70  84 SE10      29.63F
BEEVILLE       CLOUDY    75  75 100 SE7       29.62F
ROCKPORT       CLOUDY    77  72  84 SE9       29.61F
PORT ARANSAS   CLOUDY    76  73  90 SE9       29.61S
PORT LAVACA    CLOUDY    75  72  89 S5        29.64F
CORPUS CHRISTI CLOUDY    77  73  87 SE16      29.60F
KINGSVILLE NAS CLOUDY    77  74  90 SE7       29.59F
COTULLA        MOCLDY    72  66  81 SE9       29.59F
LAREDO         PTCLDY    74  70  87 SE13      29.58S
BROWNSVILLE    CLOUDY    77  73  87 SE10      29.62F
PORT ISABEL    PTCLDY    76  73  91 S13       29.60F FOG
HEBBRONVILLE   CLOUDY    72  70  93 S13       29.60F FOG
MCALLEN        PTCLDY    76  70  82 SE9       29.59F
WESLACO        MOCLDY    74  71  88 S9        29.59F
FALFURRIAS     MOSUNNY   74  72  92 SE6       29.58F
EDINBURG       MOSUNNY   74  70  86 SE5       29.59F
$$




USA.gov is the U.S. government's official web portal to all federal, state and local government web resources and services.